STARLINK-33759 (64007 NORAD) Tracking and Keplerian Element Data

This shows tracking and keplerian element data for the satellite.

Feedback or suggestion? Click here.




ElementValue
Catalog64007
NameSTARLINK-33759
Epoch Orbit3486
Epoch Day353.95629622
Epoch Year2025
RAAN88.0274
Inclination42.9992
Eccentricity8.37E-05
Argument of Perigee284.7583
Mean Anonmoly75.3175
Mean Motion15.27597888
Decay Rate3.641E-05
L11 64007U 25101P 25353.95629622 .00003641 00000+0 14167-3 0 9990
L22 64007 42.9992 88.0274 0000837 284.7583 75.3175 15.27597888 34867



Live tracking and technical data element details for STARLINK-33759 (NORAD 64007). STARLINK-33759 can be tracked NOW for your location showing map with azimuth and elevation plus other details from your city location.







IsCatalogInMostPopularTable: catalog: 64007, numindb: 2
Update: records affected: 1



GetName: 64007 STARLINK-33759

Hit Count: updated at: Sat, 07 Feb 2026 08:57:37 GMT